When you browse on this site, cookies collect data to enhance your experience and personalize the content and advertising you see.
Visit our Privacy Policy to learn more. By continuing to use the site, you agree to this use of cookies and data.
  • En España
  • Lista de países
  • Para 7 días
  • Temperatura del agua
  • El tiempo en el mapa
  • Informadores
  • user-avatar
    Iniciar sesión

    Tiempo cada hora Bliznaki

    Hoy, 7 Junio, Domingo

    Tiempo Temperatura Precipitaciones Viento Presión Humedad
    00:00 +15°C° 0 mm 1 mps 738 mmHg 93%
    01:00 +14°C° 0 mm 1 mps 739 mmHg 93%
    02:00 +14°C° 0 mm 1 mps 739 mmHg 94%
    03:00 +14°C° 0 mm 1 mps 739 mmHg 93%
    04:00 +14°C° 0 mm 0 mps 740 mmHg 93%
    05:00 +14°C° 0 mm 0 mps 740 mmHg 92%
    06:00 +16°C° 0 mm 0 mps 740 mmHg 88%
    07:00 +20°C° 0 mm 1 mps 741 mmHg 84%
    08:00 +21°C° 0 mm 1 mps 741 mmHg 79%
    09:00 +23°C° 0 mm 1 mps 741 mmHg 73%
    10:00 +24°C° 0 mm 1 mps 741 mmHg 66%
    11:00 +25°C° 0 mm 2 mps 741 mmHg 60%
    12:00 +26°C° 0 mm 2 mps 741 mmHg 59%
    13:00 +26°C° 0 mm 2 mps 741 mmHg 58%
    14:00 +26°C° 0 mm 2 mps 741 mmHg 57%
    15:00 +26°C° 0 mm 2 mps 741 mmHg 60%
    16:00 +26°C° 0 mm 2 mps 741 mmHg 64%
    17:00 +26°C° 0 mm 2 mps 740 mmHg 67%
    18:00 +24°C° 0 mm 2 mps 740 mmHg 72%
    19:00 +23°C° 0 mm 2 mps 740 mmHg 77%
    20:00 +20°C° 0 mm 2 mps 740 mmHg 82%
    21:00 +19°C° 0 mm 2 mps 740 mmHg 84%
    22:00 +19°C° 0 mm 2 mps 740 mmHg 86%
    23:00 +18°C° 0 mm 2 mps 740 mmHg 88%

    Mañana, 8 Junio, Lunes

    Tiempo Temperatura Precipitaciones Viento Presión Humedad
    00:00 +18°C° 0.2 mm 2 mps 740 mmHg 90%
    01:00 +17°C° 0.2 mm 2 mps 740 mmHg 92%
    02:00 +17°C° 0.2 mm 2 mps 741 mmHg 95%
    03:00 +17°C° 0 mm 2 mps 740 mmHg 95%
    04:00 +18°C° 0 mm 2 mps 740 mmHg 95%
    05:00 +18°C° 0 mm 2 mps 740 mmHg 95%
    06:00 +20°C° 0 mm 2 mps 740 mmHg 92%
    07:00 +21°C° 0 mm 2 mps 740 mmHg 88%
    08:00 +24°C° 0 mm 2 mps 741 mmHg 84%
    09:00 +25°C° 0 mm 3 mps 741 mmHg 79%
    10:00 +26°C° 0 mm 3 mps 741 mmHg 74%
    11:00 +27°C° 0 mm 3 mps 741 mmHg 69%
    12:00 +27°C° 0 mm 3 mps 741 mmHg 67%
    13:00 +27°C° 0 mm 3 mps 741 mmHg 65%
    14:00 +28°C° 0 mm 3 mps 740 mmHg 64%
    15:00 +28°C° 0 mm 3 mps 740 mmHg 66%
    16:00 +27°C° 0 mm 3 mps 740 mmHg 68%
    17:00 +27°C° 0 mm 2 mps 740 mmHg 69%
    18:00 +25°C° 0 mm 2 mps 740 mmHg 75%
    19:00 +24°C° 0 mm 2 mps 740 mmHg 81%
    20:00 +22°C° 0 mm 1 mps 740 mmHg 86%
    21:00 +21°C° 0 mm 1 mps 740 mmHg 87%
    22:00 +20°C° 0 mm 1 mps 740 mmHg 89%
    23:00 +19°C° 0 mm 1 mps 740 mmHg 90%

    Pasado mañana, 9 Junio, Martes

    Tiempo Temperatura Precipitaciones Viento Presión Humedad
    00:00 +19°C° 0 mm 1 mps 740 mmHg 91%
    01:00 +19°C° 0 mm 1 mps 740 mmHg 92%
    02:00 +19°C° 0 mm 1 mps 741 mmHg 94%
    03:00 +19°C° 0 mm 1 mps 741 mmHg 93%
    04:00 +18°C° 0 mm 2 mps 741 mmHg 93%
    05:00 +19°C° 0 mm 2 mps 741 mmHg 93%
    06:00 +20°C° 0 mm 2 mps 741 mmHg 88%
    07:00 +23°C° 0 mm 2 mps 741 mmHg 83%
    08:00 +24°C° 0 mm 2 mps 741 mmHg 79%
    09:00 +25°C° 0.2 mm 2 mps 741 mmHg 75%
    10:00 +26°C° 0.2 mm 3 mps 741 mmHg 72%
    11:00 +27°C° 0.2 mm 3 mps 742 mmHg 69%
    12:00 +28°C° 0.2 mm 3 mps 741 mmHg 67%
    13:00 +28°C° 0.2 mm 3 mps 741 mmHg 66%
    14:00 +28°C° 0.2 mm 3 mps 741 mmHg 65%
    15:00 +28°C° 0.1 mm 2 mps 741 mmHg 66%
    16:00 +28°C° 0.1 mm 2 mps 741 mmHg 67%
    17:00 +28°C° 0.1 mm 1 mps 741 mmHg 68%
    18:00 +26°C° 0.1 mm 1 mps 741 mmHg 73%
    19:00 +24°C° 0.1 mm 1 mps 741 mmHg 78%
    20:00 +23°C° 0.1 mm 1 mps 741 mmHg 84%
    21:00 +22°C° 0 mm 1 mps 741 mmHg 85%
    22:00 +21°C° 0 mm 1 mps 741 mmHg 87%
    23:00 +20°C° 0 mm 1 mps 741 mmHg 89%

    10 Junio, Miércoles

    Tiempo Temperatura Precipitaciones Viento Presión Humedad
    00:00 +20°C° 0 mm 1 mps 741 mmHg 90%
    01:00 +20°C° 0 mm 1 mps 741 mmHg 92%
    02:00 +19°C° 0 mm 1 mps 741 mmHg 93%
    03:00 +20°C° 0 mm 1 mps 741 mmHg 93%
    04:00 +20°C° 0 mm 1 mps 741 mmHg 92%
    05:00 +20°C° 0 mm 1 mps 741 mmHg 92%
    06:00 +22°C° 0 mm 1 mps 741 mmHg 87%
    07:00 +24°C° 0 mm 2 mps 742 mmHg 82%
    08:00 +25°C° 0 mm 2 mps 742 mmHg 78%
    09:00 +26°C° 0.1 mm 2 mps 742 mmHg 73%
    10:00 +27°C° 0.1 mm 2 mps 742 mmHg 69%
    11:00 +28°C° 0.1 mm 3 mps 742 mmHg 65%
    12:00 +28°C° 0 mm 3 mps 741 mmHg 63%
    13:00 +29°C° 0 mm 3 mps 741 mmHg 61%
    14:00 +29°C° 0 mm 3 mps 741 mmHg 60%
    15:00 +29°C° 0 mm 2 mps 741 mmHg 62%
    16:00 +29°C° 0 mm 2 mps 741 mmHg 65%
    17:00 +28°C° 0 mm 2 mps 740 mmHg 68%
    18:00 +27°C° 0 mm 2 mps 740 mmHg 73%
    19:00 +25°C° 0 mm 2 mps 741 mmHg 78%
    20:00 +23°C° 0 mm 2 mps 741 mmHg 83%
    21:00 +21°C° 0 mm 2 mps 741 mmHg 85%
    22:00 +21°C° 0 mm 2 mps 741 mmHg 88%
    23:00 +20°C° 0 mm 2 mps 741 mmHg 91%

    11 Junio, Jueves

    Tiempo Temperatura Precipitaciones Viento Presión Humedad
    00:00 +19°C° 0 mm 2 mps 741 mmHg 92%
    01:00 +19°C° 0 mm 2 mps 741 mmHg 93%
    02:00 +19°C° 0 mm 2 mps 741 mmHg 94%
    03:00 +19°C° 0 mm 2 mps 741 mmHg 94%
    04:00 +19°C° 0 mm 2 mps 741 mmHg 94%
    05:00 +20°C° 0 mm 2 mps 741 mmHg 93%
    06:00 +21°C° 0 mm 2 mps 741 mmHg 89%
    07:00 +24°C° 0 mm 2 mps 741 mmHg 85%
    08:00 +25°C° 0 mm 2 mps 741 mmHg 80%
    09:00 +26°C° 0 mm 3 mps 741 mmHg 76%
    10:00 +27°C° 0 mm 3 mps 741 mmHg 71%
    11:00 +28°C° 0 mm 3 mps 741 mmHg 67%
    12:00 +29°C° 0 mm 3 mps 741 mmHg 65%
    13:00 +29°C° 0 mm 3 mps 740 mmHg 63%
    14:00 +30°C° 0 mm 2 mps 740 mmHg 62%
    15:00 +29°C° 0.2 mm 2 mps 740 mmHg 64%
    16:00 +29°C° 0.2 mm 2 mps 740 mmHg 67%
    17:00 +29°C° 0.2 mm 2 mps 740 mmHg 70%
    18:00 +27°C° 0.2 mm 2 mps 740 mmHg 76%
    19:00 +25°C° 0.2 mm 2 mps 740 mmHg 82%
    20:00 +24°C° 0.2 mm 2 mps 740 mmHg 88%
    21:00 +23°C° 0.1 mm 2 mps 740 mmHg 90%
    22:00 +21°C° 0.1 mm 2 mps 740 mmHg 92%
    23:00 +21°C° 0.1 mm 2 mps 740 mmHg 94%

    12 Junio, Viernes

    Tiempo Temperatura Precipitaciones Viento Presión Humedad
    00:00 +20°C° 0.1 mm 2 mps 739 mmHg 94%
    01:00 +20°C° 0.1 mm 2 mps 739 mmHg 95%
    02:00 +20°C° 0.1 mm 1 mps 739 mmHg 95%
    03:00 +21°C° 0 mm 1 mps 739 mmHg 96%
    04:00 +21°C° 0 mm 1 mps 739 mmHg 96%
    05:00 +21°C° 0 mm 1 mps 739 mmHg 96%
    06:00 +21°C° 0 mm 2 mps 739 mmHg 91%
    07:00 +24°C° 0 mm 2 mps 739 mmHg 86%
    08:00 +25°C° 0 mm 2 mps 739 mmHg 80%
    09:00 +27°C° 0 mm 2 mps 739 mmHg 74%
    10:00 +28°C° 0 mm 2 mps 739 mmHg 68%
    11:00 +29°C° 0 mm 2 mps 739 mmHg 62%
    12:00 +29°C° 0 mm 2 mps 739 mmHg 60%
    13:00 +30°C° 0 mm 2 mps 739 mmHg 58%
    14:00 +30°C° 0 mm 2 mps 738 mmHg 57%
    15:00 +30°C° 0 mm 2 mps 738 mmHg 59%
    16:00 +30°C° 0 mm 1 mps 738 mmHg 60%
    17:00 +29°C° 0 mm 1 mps 738 mmHg 62%
    18:00 +28°C° 0 mm 1 mps 738 mmHg 67%
    19:00 +26°C° 0 mm 1 mps 738 mmHg 72%
    20:00 +24°C° 0 mm 1 mps 738 mmHg 78%
    21:00 +23°C° 0.1 mm 1 mps 738 mmHg 79%
    22:00 +22°C° 0.1 mm 1 mps 738 mmHg 81%
    23:00 +19°C° 0.1 mm 0 mps 738 mmHg 82%
    Mostrar más